Time,TemperatureF,DewpointF,PressureIn,WindDirection,WindDirectionDegrees,WindSpeedMPH,WindSpeedGustMPH,Humidity,HourlyPrecipIn,Conditions,Clouds,dailyrainin,SoftwareType,DateUTC
2013-02-09 00:00:00,63.7,57.5,30.09,North,352,0.0,0.0,80,0.00,,,0.00,VWS V14.01,2013-02-09 05:00:00,
2013-02-09 00:05:00,63.5,57.4,30.09,North,352,0.0,0.0,80,0.00,,,0.00,VWS V14.01,2013-02-09 05:05:00,
2013-02-09 00:10:00,63.7,57.7,30.09,North,352,0.0,0.0,81,0.00,,,0.00,VWS V14.01,2013-02-09 05:10:00,
2013-02-09 00:15:00,63.3,57.4,30.09,North,352,0.0,0.0,81,0.00,,,0.00,VWS V14.01,2013-02-09 05:15:00,
2013-02-09 00:20:00,63.2,57.3,30.09,North,352,0.0,0.0,81,0.00,,,0.00,VWS V14.01,2013-02-09 05:20:00,
2013-02-09 00:25:00,63.0,57.2,30.09,North,352,0.0,0.0,81,0.00,,,0.00,VWS V14.01,2013-02-09 05:25:00,
2013-02-09 00:30:00,63.0,57.3,30.09,North,352,0.0,0.0,82,0.00,,,0.00,VWS V14.01,2013-02-09 05:30:00,
2013-02-09 00:35:00,62.8,57.2,30.10,North,352,0.0,0.0,82,0.00,,,0.00,VWS V14.01,2013-02-09 05:35:00,
2013-02-09 00:40:00,62.9,57.4,30.09,North,352,0.0,0.0,82,0.00,,,0.00,VWS V14.01,2013-02-09 05:40:00,
2013-02-09 00:45:00,62.4,57.0,30.10,North,352,0.0,0.0,82,0.00,,,0.00,VWS V14.01,2013-02-09 05:45:00,
2013-02-09 00:50:00,62.2,56.9,30.09,North,352,0.0,0.0,83,0.00,,,0.00,VWS V14.01,2013-02-09 05:50:00,
2013-02-09 00:55:00,62.1,56.9,30.10,North,352,0.0,0.0,83,0.00,,,0.00,VWS V14.01,2013-02-09 05:55:00,
2013-02-09 01:00:00,62.1,57.0,30.10,North,352,0.0,0.0,83,0.00,,,0.00,VWS V14.01,2013-02-09 06:00:00,
2013-02-09 01:05:00,62.0,56.9,30.09,North,352,0.0,0.0,83,0.00,,,0.00,VWS V14.01,2013-02-09 06:05:00,
2013-02-09 01:10:00,61.6,56.6,30.09,North,352,0.0,0.0,84,0.00,,,0.00,VWS V14.01,2013-02-09 06:10:00,
2013-02-09 01:15:00,61.7,56.8,30.09,North,352,0.0,0.0,84,0.00,,,0.00,VWS V14.01,2013-02-09 06:15:00,
2013-02-09 01:20:00,61.5,56.6,30.10,North,352,0.0,0.0,84,0.00,,,0.00,VWS V14.01,2013-02-09 06:20:00,
2013-02-09 01:25:00,61.5,56.6,30.10,North,352,0.0,0.0,84,0.00,,,0.00,VWS V14.01,2013-02-09 06:25:00,
2013-02-09 01:29:00,61.5,56.7,30.10,North,352,0.0,0.0,84,0.00,,,0.00,VWS V14.01,2013-02-09 06:29:00,
2013-02-09 01:30:00,61.3,56.5,30.10,North,352,0.0,0.0,84,0.00,,,0.00,VWS V14.01,2013-02-09 06:30:00,
2013-02-09 01:34:00,61.4,56.6,30.10,North,352,0.0,0.0,84,0.00,,,0.00,VWS V14.01,2013-02-09 06:34:00,
2013-02-09 01:35:00,61.3,56.5,30.10,North,352,0.0,0.0,84,0.00,,,0.00,VWS V14.01,2013-02-09 06:35:00,
2013-02-09 01:39:00,61.2,56.4,30.10,North,352,0.0,0.0,84,0.00,,,0.00,VWS V14.01,2013-02-09 06:39:00,
2013-02-09 01:40:00,61.0,56.3,30.10,North,352,0.0,0.0,85,0.00,,,0.00,VWS V14.01,2013-02-09 06:40:00,
2013-02-09 01:44:00,61.3,56.6,30.10,North,352,0.0,0.0,85,0.00,,,0.00,VWS V14.01,2013-02-09 06:44:00,
2013-02-09 01:45:00,61.0,56.3,30.10,North,352,0.0,0.0,84,0.00,,,0.00,VWS V14.01,2013-02-09 06:45:00,
2013-02-09 01:49:00,60.9,56.1,30.10,North,352,0.0,0.0,84,0.00,,,0.00,VWS V14.01,2013-02-09 06:49:00,
2013-02-09 01:50:00,60.9,56.1,30.10,North,352,0.0,0.0,84,0.00,,,0.00,VWS V14.01,2013-02-09 06:50:00,
2013-02-09 01:54:00,60.8,56.1,30.10,North,352,0.0,0.0,85,0.00,,,0.00,VWS V14.01,2013-02-09 06:54:00,
2013-02-09 01:55:00,60.5,55.8,30.10,North,352,0.0,0.0,85,0.00,,,0.00,VWS V14.01,2013-02-09 06:55:00,
2013-02-09 02:00:00,60.4,55.8,30.10,North,352,0.0,0.0,85,0.00,,,0.00,VWS V14.01,2013-02-09 07:00:00,
2013-02-09 02:05:00,60.3,55.7,30.10,North,352,0.0,0.0,85,0.00,,,0.00,VWS V14.01,2013-02-09 07:05:00,
2013-02-09 02:10:00,60.7,56.1,30.10,North,352,0.0,0.0,85,0.00,,,0.00,VWS V14.01,2013-02-09 07:10:00,
2013-02-09 02:15:00,60.3,55.6,30.10,North,352,0.0,0.0,84,0.00,,,0.00,VWS V14.01,2013-02-09 07:15:00,
2013-02-09 02:20:00,60.4,55.8,30.10,North,352,0.0,0.0,85,0.00,,,0.00,VWS V14.01,2013-02-09 07:20:00,
2013-02-09 02:25:00,60.2,55.6,30.10,North,352,0.0,0.0,85,0.00,,,0.00,VWS V14.01,2013-02-09 07:25:00,
2013-02-09 02:30:00,60.3,55.8,30.10,North,352,0.0,0.0,85,0.00,,,0.00,VWS V14.01,2013-02-09 07:30:00,
2013-02-09 02:35:00,60.0,55.6,30.10,North,352,0.0,0.0,85,0.00,,,0.00,VWS V14.01,2013-02-09 07:35:00,
2013-02-09 02:40:00,60.1,55.6,30.10,North,352,0.0,0.0,85,0.00,,,0.00,VWS V14.01,2013-02-09 07:40:00,
2013-02-09 02:45:00,60.1,55.6,30.10,North,352,0.0,0.0,85,0.00,,,0.00,VWS V14.01,2013-02-09 07:45:00,
2013-02-09 02:50:00,59.9,55.4,30.10,North,352,0.0,0.0,85,0.00,,,0.00,VWS V14.01,2013-02-09 07:50:00,
2013-02-09 02:55:00,59.7,55.3,30.10,North,352,0.0,0.0,86,0.00,,,0.00,VWS V14.01,2013-02-09 07:55:00,
2013-02-09 03:00:00,59.8,55.5,30.10,North,352,0.0,0.0,86,0.00,,,0.00,VWS V14.01,2013-02-09 08:00:00,
2013-02-09 03:05:00,59.6,55.3,30.10,North,352,0.0,0.0,86,0.00,,,0.00,VWS V14.01,2013-02-09 08:05:00,
2013-02-09 03:10:00,59.8,55.5,30.10,North,352,0.0,0.0,86,0.00,,,0.00,VWS V14.01,2013-02-09 08:10:00,
2013-02-09 03:15:00,59.5,55.3,30.10,North,352,0.0,0.0,86,0.00,,,0.00,VWS V14.01,2013-02-09 08:15:00,
2013-02-09 03:20:00,59.5,55.3,30.10,North,352,0.0,0.0,86,0.00,,,0.00,VWS V14.01,2013-02-09 08:20:00,
2013-02-09 03:25:00,59.5,55.3,30.10,North,352,0.0,0.0,86,0.00,,,0.00,VWS V14.01,2013-02-09 08:25:00,
2013-02-09 03:30:00,59.6,55.3,30.10,North,352,0.0,0.0,86,0.00,,,0.00,VWS V14.01,2013-02-09 08:30:00,
2013-02-09 03:35:00,59.6,55.3,30.11,North,352,0.0,0.0,86,0.00,,,0.00,VWS V14.01,2013-02-09 08:35:00,
2013-02-09 03:40:00,59.5,55.2,30.11,North,352,0.0,0.0,86,0.00,,,0.00,VWS V14.01,2013-02-09 08:40:00,
2013-02-09 03:45:00,59.5,55.1,30.11,North,352,0.0,0.0,85,0.00,,,0.00,VWS V14.01,2013-02-09 08:45:00,
2013-02-09 03:50:00,59.5,55.1,30.11,North,352,0.0,0.0,85,0.00,,,0.00,VWS V14.01,2013-02-09 08:50:00,
2013-02-09 03:55:00,59.4,55.0,30.11,North,352,0.0,0.0,85,0.00,,,0.00,VWS V14.01,2013-02-09 08:55:00,
2013-02-09 04:00:00,59.4,55.0,30.12,North,352,0.0,0.0,85,0.00,,,0.00,VWS V14.01,2013-02-09 09:00:00,
2013-02-09 04:05:00,59.3,55.0,30.11,North,352,0.0,0.0,86,0.00,,,0.00,VWS V14.01,2013-02-09 09:05:00,
2013-02-09 04:10:00,59.4,55.1,30.11,North,352,0.0,0.0,86,0.00,,,0.00,VWS V14.01,2013-02-09 09:10:00,
2013-02-09 04:15:00,59.3,54.9,30.12,North,352,0.0,0.0,85,0.00,,,0.00,VWS V14.01,2013-02-09 09:15:00,
2013-02-09 04:20:00,59.2,55.0,30.12,North,352,0.0,0.0,86,0.00,,,0.00,VWS V14.01,2013-02-09 09:20:00,
2013-02-09 04:25:00,59.1,54.9,30.12,North,352,0.0,0.0,86,0.00,,,0.00,VWS V14.01,2013-02-09 09:25:00,
2013-02-09 04:30:00,59.0,54.7,30.12,North,352,0.0,0.0,86,0.00,,,0.00,VWS V14.01,2013-02-09 09:30:00,
2013-02-09 04:35:00,59.1,54.9,30.12,North,352,0.0,0.0,86,0.00,,,0.00,VWS V14.01,2013-02-09 09:35:00,
2013-02-09 04:40:00,58.9,54.8,30.12,North,352,0.0,0.0,86,0.00,,,0.00,VWS V14.01,2013-02-09 09:40:00,
2013-02-09 04:45:00,58.7,54.7,30.12,North,352,0.0,0.0,86,0.00,,,0.00,VWS V14.01,2013-02-09 09:45:00,
2013-02-09 04:50:00,58.8,54.8,30.13,North,352,0.0,0.0,87,0.00,,,0.00,VWS V14.01,2013-02-09 09:50:00,
2013-02-09 04:55:00,58.7,54.7,30.13,North,352,0.0,0.0,86,0.00,,,0.00,VWS V14.01,2013-02-09 09:55:00,
2013-02-09 05:00:00,58.8,54.8,30.13,North,352,0.0,0.0,86,0.00,,,0.00,VWS V14.01,2013-02-09 10:00:00,
2013-02-09 05:05:00,58.8,54.8,30.13,North,352,0.0,0.0,86,0.00,,,0.00,VWS V14.01,2013-02-09 10:05:00,
2013-02-09 05:10:00,58.8,54.8,30.13,North,352,0.0,0.0,87,0.00,,,0.00,VWS V14.01,2013-02-09 10:10:00,
2013-02-09 05:15:00,58.8,54.8,30.13,North,352,0.0,0.0,86,0.00,,,0.00,VWS V14.01,2013-02-09 10:15:00,
2013-02-09 05:20:00,58.8,54.8,30.13,North,352,0.0,0.0,86,0.00,,,0.00,VWS V14.01,2013-02-09 10:20:00,
2013-02-09 05:25:00,58.7,54.7,30.13,North,352,0.0,0.0,86,0.00,,,0.00,VWS V14.01,2013-02-09 10:25:00,
2013-02-09 05:30:00,58.6,54.6,30.14,North,352,0.0,0.0,87,0.00,,,0.00,VWS V14.01,2013-02-09 10:30:00,
2013-02-09 05:35:00,58.7,54.7,30.14,North,352,0.0,0.0,86,0.00,,,0.00,VWS V14.01,2013-02-09 10:35:00,
2013-02-09 05:40:00,58.4,54.4,30.14,North,352,0.0,0.0,86,0.00,,,0.00,VWS V14.01,2013-02-09 10:40:00,
2013-02-09 05:45:00,58.2,54.3,30.14,North,352,0.0,0.0,87,0.00,,,0.00,VWS V14.01,2013-02-09 10:45:00,
2013-02-09 05:50:00,58.1,54.2,30.15,North,352,0.0,0.0,87,0.00,,,0.00,VWS V14.01,2013-02-09 10:50:00,
2013-02-09 05:55:00,58.1,54.1,30.15,North,352,0.0,0.0,87,0.00,,,0.00,VWS V14.01,2013-02-09 10:55:00,
2013-02-09 06:00:00,57.9,54.0,30.15,North,352,0.0,0.0,87,0.00,,,0.00,VWS V14.01,2013-02-09 11:00:00,
2013-02-09 06:05:00,57.8,53.9,30.15,North,352,0.0,0.0,87,0.00,,,0.00,VWS V14.01,2013-02-09 11:05:00,
2013-02-09 06:10:00,57.6,53.7,30.15,North,352,0.0,0.0,87,0.00,,,0.00,VWS V14.01,2013-02-09 11:10:00,
2013-02-09 06:15:00,57.4,53.6,30.15,North,352,0.0,0.0,87,0.00,,,0.00,VWS V14.01,2013-02-09 11:15:00,
2013-02-09 06:20:00,57.3,53.5,30.15,North,352,0.0,0.0,87,0.00,,,0.00,VWS V14.01,2013-02-09 11:20:00,
2013-02-09 06:25:00,57.2,53.4,30.16,North,352,0.0,0.0,87,0.00,,,0.00,VWS V14.01,2013-02-09 11:25:00,
2013-02-09 06:30:00,57.2,53.4,30.16,North,352,0.0,0.0,87,0.00,,,0.00,VWS V14.01,2013-02-09 11:30:00,
2013-02-09 06:35:00,57.2,53.4,30.16,North,352,0.0,0.0,87,0.00,,,0.00,VWS V14.01,2013-02-09 11:35:00,
2013-02-09 06:40:00,57.1,53.4,30.16,North,352,0.0,0.0,87,0.00,,,0.00,VWS V14.01,2013-02-09 11:40:00,
2013-02-09 06:45:00,57.0,53.3,30.17,North,352,0.0,0.0,87,0.00,,,0.00,VWS V14.01,2013-02-09 11:45:00,
2013-02-09 06:50:00,56.9,53.2,30.17,North,352,0.0,0.0,88,0.00,,,0.00,VWS V14.01,2013-02-09 11:50:00,
2013-02-09 06:55:00,56.8,53.2,30.17,North,352,0.0,0.0,88,0.00,,,0.00,VWS V14.01,2013-02-09 11:55:00,
2013-02-09 07:00:00,56.7,53.1,30.17,North,352,0.0,0.0,88,0.00,,,0.00,VWS V14.01,2013-02-09 12:00:00,
2013-02-09 07:05:00,56.8,53.4,30.18,North,352,0.0,0.0,88,0.00,,,0.00,VWS V14.01,2013-02-09 12:05:00,
2013-02-09 07:10:00,56.7,53.4,30.18,North,352,0.0,0.0,89,0.00,,,0.00,VWS V14.01,2013-02-09 12:10:00,
2013-02-09 07:15:00,56.9,53.7,30.18,North,352,0.0,0.0,89,0.00,,,0.00,VWS V14.01,2013-02-09 12:15:00,
2013-02-09 07:20:00,56.7,53.7,30.18,North,352,0.0,0.0,90,0.00,,,0.00,VWS V14.01,2013-02-09 12:20:00,
2013-02-09 07:25:00,56.8,53.8,30.18,North,352,0.0,0.0,90,0.00,,,0.00,VWS V14.01,2013-02-09 12:25:00,
2013-02-09 07:30:00,56.9,54.0,30.18,North,352,0.0,0.0,90,0.00,,,0.00,VWS V14.01,2013-02-09 12:30:00,
2013-02-09 07:35:00,57.0,54.1,30.19,North,352,0.0,0.0,90,0.00,,,0.00,VWS V14.01,2013-02-09 12:35:00,
2013-02-09 07:41:00,56.9,53.9,30.19,North,352,0.0,0.0,90,0.00,,,0.00,VWS V14.01,2013-02-09 12:41:00,
2013-02-09 07:46:00,57.0,54.1,30.19,North,352,0.0,0.0,90,0.00,,,0.00,VWS V14.01,2013-02-09 12:46:00,
2013-02-09 07:51:00,57.0,54.1,30.19,North,352,0.0,0.0,90,0.00,,,0.00,VWS V14.01,2013-02-09 12:51:00,
2013-02-09 07:56:00,57.0,54.1,30.19,North,352,0.0,0.0,90,0.00,,,0.00,VWS V14.01,2013-02-09 12:56:00,
2013-02-09 08:01:00,57.0,54.2,30.19,North,352,0.0,0.0,90,0.00,,,0.00,VWS V14.01,2013-02-09 13:01:00,
2013-02-09 08:06:00,57.0,54.2,30.19,North,352,0.0,0.0,90,0.00,,,0.00,VWS V14.01,2013-02-09 13:06:00,
2013-02-09 08:11:00,57.1,54.2,30.20,North,352,0.0,0.0,90,0.00,,,0.00,VWS V14.01,2013-02-09 13:11:00,
2013-02-09 08:16:00,57.2,54.3,30.20,North,352,0.0,0.0,90,0.00,,,0.00,VWS V14.01,2013-02-09 13:16:00,
2013-02-09 08:21:00,57.2,54.4,30.20,North,352,0.0,0.0,90,0.00,,,0.00,VWS V14.01,2013-02-09 13:21:00,
2013-02-09 08:26:00,57.4,54.6,30.20,North,352,0.0,0.0,90,0.00,,,0.00,VWS V14.01,2013-02-09 13:26:00,
2013-02-09 08:31:00,57.5,54.6,30.20,North,352,0.0,0.0,90,0.00,,,0.00,VWS V14.01,2013-02-09 13:31:00,
2013-02-09 08:36:00,57.7,54.8,30.20,North,352,0.0,0.0,90,0.00,,,0.00,VWS V14.01,2013-02-09 13:36:00,
2013-02-09 08:41:00,58.1,55.2,30.20,North,352,0.0,0.0,90,0.00,,,0.00,VWS V14.01,2013-02-09 13:41:00,
2013-02-09 08:46:00,58.3,55.3,30.20,NNW,336,0.0,0.0,90,0.00,,,0.00,VWS V14.01,2013-02-09 13:46:00,
2013-02-09 08:51:00,58.4,55.2,30.20,NNW,336,0.0,0.0,89,0.00,,,0.00,VWS V14.01,2013-02-09 13:51:00,
2013-02-09 08:56:00,58.7,55.5,30.21,NW,315,0.0,3.4,89,0.00,,,0.00,VWS V14.01,2013-02-09 13:56:00,
2013-02-09 09:01:00,59.0,55.7,30.21,NW,315,0.0,0.0,89,0.00,,,0.00,VWS V14.01,2013-02-09 14:01:00,
2013-02-09 09:06:00,59.1,55.7,30.21,NW,315,0.0,0.0,88,0.00,,,0.00,VWS V14.01,2013-02-09 14:06:00,
2013-02-09 09:11:00,59.1,55.5,30.21,NW,315,0.0,0.0,88,0.00,,,0.00,VWS V14.01,2013-02-09 14:11:00,
2013-02-09 09:16:00,59.5,55.8,30.22,NW,315,0.0,0.0,88,0.00,,,0.00,VWS V14.01,2013-02-09 14:16:00,
2013-02-09 09:21:00,59.6,55.9,30.22,NW,315,0.0,0.0,87,0.00,,,0.00,VWS V14.01,2013-02-09 14:21:00,
2013-02-09 09:26:00,59.9,55.8,30.22,NW,315,0.0,0.0,86,0.00,,,0.00,VWS V14.01,2013-02-09 14:26:00,
2013-02-09 09:31:00,60.2,56.0,30.22,North,359,0.0,0.0,86,0.00,,,0.00,VWS V14.01,2013-02-09 14:31:00,
2013-02-09 09:36:00,60.7,56.4,30.22,North,359,0.0,0.0,86,0.00,,,0.00,VWS V14.01,2013-02-09 14:36:00,
2013-02-09 09:41:00,60.6,56.0,30.22,North,359,0.0,0.0,85,0.00,,,0.00,VWS V14.01,2013-02-09 14:41:00,
2013-02-09 09:46:00,61.2,56.4,30.23,North,357,0.0,0.0,84,0.00,,,0.00,VWS V14.01,2013-02-09 14:46:00,
2013-02-09 09:51:00,61.5,56.4,30.22,NE,48,0.0,3.2,83,0.00,,,0.00,VWS V14.01,2013-02-09 14:51:00,
2013-02-09 09:55:00,62.0,56.7,30.22,NE,48,0.0,2.0,83,0.00,,,0.00,VWS V14.01,2013-02-09 14:55:00,
2013-02-09 10:00:00,62.2,56.7,30.22,NE,35,0.0,3.5,82,0.00,,,0.00,VWS V14.01,2013-02-09 15:00:00,
2013-02-09 10:05:00,61.9,56.2,30.22,NE,35,0.0,0.0,82,0.00,,,0.00,VWS V14.01,2013-02-09 15:05:00,
2013-02-09 10:10:00,62.3,56.7,30.22,NE,44,0.0,0.0,82,0.00,,,0.00,VWS V14.01,2013-02-09 15:10:00,
2013-02-09 10:15:00,63.2,57.2,30.23,ENE,58,0.0,0.0,81,0.00,,,0.00,VWS V14.01,2013-02-09 15:15:00,
2013-02-09 10:20:00,63.6,57.2,30.22,ENE,58,0.0,0.0,80,0.00,,,0.00,VWS V14.01,2013-02-09 15:20:00,
2013-02-09 10:25:00,63.5,56.8,30.23,East,83,2.2,5.8,79,0.00,,,0.00,VWS V14.01,2013-02-09 15:25:00,
2013-02-09 10:30:00,64.0,57.3,30.22,NE,35,0.0,0.0,79,0.00,,,0.00,VWS V14.01,2013-02-09 15:30:00,
2013-02-09 10:35:00,64.5,57.5,30.22,NW,322,0.0,4.3,78,0.00,,,0.00,VWS V14.01,2013-02-09 15:35:00,
2013-02-09 10:40:00,65.0,57.5,30.22,NW,322,0.0,0.0,77,0.00,,,0.00,VWS V14.01,2013-02-09 15:40:00,
2013-02-09 10:45:00,66.0,57.9,30.22,NE,34,0.0,0.0,75,0.00,,,0.00,VWS V14.01,2013-02-09 15:45:00,
2013-02-09 10:50:00,67.2,58.3,30.22,NE,34,0.0,0.0,73,0.00,,,0.00,VWS V14.01,2013-02-09 15:50:00,
2013-02-09 10:55:00,67.9,58.5,30.22,NNE,28,0.0,0.0,72,0.00,,,0.00,VWS V14.01,2013-02-09 15:55:00,
2013-02-09 11:00:00,68.4,58.5,30.22,NNE,13,0.0,0.0,71,0.00,,,0.00,VWS V14.01,2013-02-09 16:00:00,
2013-02-09 11:05:00,68.6,58.7,30.22,NW,315,0.0,5.0,71,0.00,,,0.00,VWS V14.01,2013-02-09 16:05:00,
2013-02-09 11:10:00,69.3,58.6,30.22,NW,315,0.0,2.5,69,0.00,,,0.00,VWS V14.01,2013-02-09 16:10:00,
2013-02-09 11:15:00,69.7,58.7,30.22,NNE,20,0.0,3.4,68,0.00,,,0.00,VWS V14.01,2013-02-09 16:15:00,
2013-02-09 11:20:00,70.1,58.6,30.22,East,101,0.0,3.5,67,0.00,,,0.00,VWS V14.01,2013-02-09 16:20:00,
2013-02-09 11:25:00,70.5,59.1,30.22,NE,52,0.0,0.0,67,0.00,,,0.00,VWS V14.01,2013-02-09 16:25:00,
2013-02-09 11:30:00,70.7,59.0,30.22,ENE,72,3.5,4.4,66,0.00,,,0.00,VWS V14.01,2013-02-09 16:30:00,
2013-02-09 11:35:00,71.3,59.1,30.22,NE,38,0.0,0.0,65,0.00,,,0.00,VWS V14.01,2013-02-09 16:35:00,
2013-02-09 11:40:00,71.4,59.2,30.22,NE,34,0.0,5.2,65,0.00,,,0.00,VWS V14.01,2013-02-09 16:40:00,
2013-02-09 11:45:00,71.5,59.2,30.21,NE,34,0.0,0.0,65,0.00,,,0.00,VWS V14.01,2013-02-09 16:45:00,
2013-02-09 11:50:00,71.5,59.1,30.21,ENE,76,0.0,3.5,65,0.00,,,0.00,VWS V14.01,2013-02-09 16:50:00,
2013-02-09 11:55:00,71.5,59.2,30.21,NE,44,0.0,5.8,65,0.00,,,0.00,VWS V14.01,2013-02-09 16:55:00,
2013-02-09 12:00:00,71.1,59.1,30.21,NE,35,1.9,5.0,66,0.00,,,0.00,VWS V14.01,2013-02-09 17:00:00,
2013-02-09 12:05:00,71.3,58.9,30.21,NE,35,0.0,0.0,65,0.00,,,0.00,VWS V14.01,2013-02-09 17:05:00,
2013-02-09 12:10:00,71.1,59.0,30.21,NE,39,0.0,0.0,66,0.00,,,0.00,VWS V14.01,2013-02-09 17:10:00,
2013-02-09 12:15:00,71.6,59.0,30.20,East,87,3.2,5.2,64,0.00,,,0.00,VWS V14.01,2013-02-09 17:15:00,
2013-02-09 12:20:00,72.2,59.2,30.20,NE,53,4.3,4.3,64,0.00,,,0.00,VWS V14.01,2013-02-09 17:20:00,
2013-02-09 12:25:00,71.7,58.6,30.21,SE,127,0.0,0.0,63,0.00,,,0.00,VWS V14.01,2013-02-09 17:25:00,
2013-02-09 12:30:00,72.1,59.4,30.20,NE,35,0.0,0.0,64,0.00,,,0.00,VWS V14.01,2013-02-09 17:30:00,
2013-02-09 12:35:00,72.3,58.8,30.20,East,94,0.0,3.2,63,0.00,,,0.00,VWS V14.01,2013-02-09 17:35:00,
2013-02-09 12:40:00,72.0,58.7,30.20,East,94,0.0,0.0,63,0.00,,,0.00,VWS V14.01,2013-02-09 17:40:00,
2013-02-09 12:45:00,71.9,58.9,30.20,NE,34,0.0,0.0,64,0.00,,,0.00,VWS V14.01,2013-02-09 17:45:00,
2013-02-09 12:50:00,72.0,59.3,30.19,NE,34,0.0,0.0,64,0.00,,,0.00,VWS V14.01,2013-02-09 17:50:00,
2013-02-09 12:55:00,72.4,58.9,30.19,NNE,28,0.0,4.6,62,0.00,,,0.00,VWS V14.01,2013-02-09 17:55:00,
2013-02-09 13:00:00,72.1,58.7,30.18,ESE,110,0.0,5.5,63,0.00,,,0.00,VWS V14.01,2013-02-09 18:00:00,
2013-02-09 13:05:00,72.2,59.1,30.18,ENE,72,0.0,0.0,64,0.00,,,0.00,VWS V14.01,2013-02-09 18:05:00,
2013-02-09 13:10:00,72.9,58.6,30.18,ENE,60,2.7,3.0,61,0.00,,,0.00,VWS V14.01,2013-02-09 18:10:00,
2013-02-09 13:15:00,73.0,58.7,30.18,NNE,18,2.4,4.3,61,0.00,,,0.00,VWS V14.01,2013-02-09 18:15:00,
2013-02-09 13:20:00,73.4,58.8,30.18,NNE,25,0.0,0.0,60,0.00,,,0.00,VWS V14.01,2013-02-09 18:20:00,
2013-02-09 13:25:00,73.3,58.3,30.18,ENE,59,0.0,4.5,59,0.00,,,0.00,VWS V14.01,2013-02-09 18:25:00,
2013-02-09 13:30:00,73.2,59.0,30.18,NNW,340,4.3,4.3,61,0.00,,,0.00,VWS V14.01,2013-02-09 18:30:00,
2013-02-09 13:35:00,73.3,58.3,30.18,North,352,0.0,0.0,59,0.00,,,0.00,VWS V14.01,2013-02-09 18:35:00,
2013-02-09 13:40:00,73.0,58.2,30.18,NE,41,0.0,0.0,60,0.00,,,0.00,VWS V14.01,2013-02-09 18:40:00,
2013-02-09 13:45:00,73.0,59.0,30.18,East,84,2.5,5.5,62,0.00,,,0.00,VWS V14.01,2013-02-09 18:45:00,
2013-02-09 13:50:00,73.3,58.8,30.18,NE,56,0.0,4.8,60,0.00,,,0.00,VWS V14.01,2013-02-09 18:50:00,
2013-02-09 13:55:00,72.8,58.5,30.17,East,89,0.0,5.0,61,0.00,,,0.00,VWS V14.01,2013-02-09 18:55:00,
2013-02-09 14:00:00,72.6,58.3,30.17,East,82,0.0,0.0,61,0.00,,,0.00,VWS V14.01,2013-02-09 19:00:00,
2013-02-09 14:05:00,73.1,58.7,30.17,NE,34,0.0,3.3,61,0.00,,,0.00,VWS V14.01,2013-02-09 19:05:00,
2013-02-09 14:10:00,73.5,58.5,30.17,NE,56,0.0,0.0,59,0.00,,,0.00,VWS V14.01,2013-02-09 19:10:00,
2013-02-09 14:15:00,73.4,58.3,30.17,ENE,62,0.0,0.0,59,0.00,,,0.00,VWS V14.01,2013-02-09 19:15:00,
2013-02-09 14:20:00,73.5,58.5,30.17,ENE,62,0.0,0.0,60,0.00,,,0.00,VWS V14.01,2013-02-09 19:20:00,
2013-02-09 14:25:00,73.9,58.5,30.17,ENE,62,0.0,0.0,58,0.00,,,0.00,VWS V14.01,2013-02-09 19:25:00,
2013-02-09 14:30:00,74.4,58.5,30.17,ENE,62,0.0,0.0,58,0.00,,,0.00,VWS V14.01,2013-02-09 19:30:00,
2013-02-09 14:35:00,74.3,58.6,30.16,NE,39,0.0,0.0,58,0.00,,,0.00,VWS V14.01,2013-02-09 19:35:00,
2013-02-09 14:40:00,74.0,58.5,30.17,East,79,0.0,0.0,58,0.00,,,0.00,VWS V14.01,2013-02-09 19:40:00,
2013-02-09 14:45:00,73.4,58.4,30.17,East,79,0.0,0.0,59,0.00,,,0.00,VWS V14.01,2013-02-09 19:45:00,
2013-02-09 14:50:00,73.5,58.6,30.17,East,79,3.0,3.0,60,0.00,,,0.00,VWS V14.01,2013-02-09 19:50:00,
2013-02-09 14:55:00,73.4,58.3,30.16,East,80,0.0,0.0,59,0.00,,,0.00,VWS V14.01,2013-02-09 19:55:00,
2013-02-09 15:00:00,73.6,59.1,30.16,East,80,0.0,0.0,60,0.00,,,0.00,VWS V14.01,2013-02-09 20:00:00,
2013-02-09 15:05:00,74.0,59.5,30.16,ENE,69,0.0,5.0,61,0.00,,,0.00,VWS V14.01,2013-02-09 20:05:00,
2013-02-09 15:10:00,74.3,59.1,30.17,NE,35,0.0,0.0,59,0.00,,,0.00,VWS V14.01,2013-02-09 20:10:00,
2013-02-09 15:15:00,73.4,59.4,30.17,ENE,65,0.0,0.0,62,0.00,,,0.00,VWS V14.01,2013-02-09 20:15:00,
2013-02-09 15:20:00,72.6,59.1,30.17,ENE,65,0.0,0.0,62,0.00,,,0.00,VWS V14.01,2013-02-09 20:20:00,
2013-02-09 15:25:00,72.4,59.0,30.17,ENE,65,0.0,0.0,63,0.00,,,0.00,VWS V14.01,2013-02-09 20:25:00,
2013-02-09 15:30:00,72.8,59.4,30.17,ENE,65,0.0,0.0,63,0.00,,,0.00,VWS V14.01,2013-02-09 20:30:00,
2013-02-09 15:35:00,72.9,59.1,30.16,ENE,65,0.0,0.0,62,0.00,,,0.00,VWS V14.01,2013-02-09 20:35:00,
2013-02-09 15:40:00,73.0,59.2,30.16,NE,42,0.0,2.7,62,0.00,,,0.00,VWS V14.01,2013-02-09 20:40:00,
2013-02-09 15:45:00,73.0,59.2,30.16,ESE,112,0.0,0.0,62,0.00,,,0.00,VWS V14.01,2013-02-09 20:45:00,
2013-02-09 15:50:00,72.7,58.4,30.16,East,93,0.0,3.4,61,0.00,,,0.00,VWS V14.01,2013-02-09 20:50:00,
2013-02-09 15:55:00,72.1,58.5,30.16,ENE,59,0.0,0.0,62,0.00,,,0.00,VWS V14.01,2013-02-09 20:55:00,
2013-02-09 16:00:00,71.8,58.8,30.16,NE,38,0.0,0.0,64,0.00,,,0.00,VWS V14.01,2013-02-09 21:00:00,
2013-02-09 16:05:00,72.3,58.9,30.17,NE,38,0.0,0.0,63,0.00,,,0.00,VWS V14.01,2013-02-09 21:05:00,
2013-02-09 16:09:00,72.1,58.7,30.17,NE,49,0.0,0.0,63,0.00,,,0.00,VWS V14.01,2013-02-09 21:09:00,
2013-02-09 16:14:00,72.1,58.7,30.17,NE,34,0.0,0.0,63,0.00,,,0.00,VWS V14.01,2013-02-09 21:14:00,
2013-02-09 16:19:00,71.7,58.3,30.18,NE,34,0.0,0.0,63,0.00,,,0.00,VWS V14.01,2013-02-09 21:19:00,
2013-02-09 16:24:00,71.6,58.1,30.17,NE,34,0.0,0.0,62,0.00,,,0.00,VWS V14.01,2013-02-09 21:24:00,
2013-02-09 16:29:00,71.6,58.3,30.17,ENE,66,0.0,3.0,63,0.00,,,0.00,VWS V14.01,2013-02-09 21:29:00,
2013-02-09 16:34:00,71.6,58.3,30.17,ENE,66,0.0,0.0,63,0.00,,,0.00,VWS V14.01,2013-02-09 21:34:00,
2013-02-09 16:39:00,71.5,58.1,30.17,ENE,62,0.0,0.0,63,0.00,,,0.00,VWS V14.01,2013-02-09 21:39:00,
2013-02-09 16:44:00,71.5,58.1,30.18,ENE,62,0.0,0.0,63,0.00,,,0.00,VWS V14.01,2013-02-09 21:44:00,
2013-02-09 16:49:00,71.3,57.8,30.18,NE,38,2.4,3.0,62,0.00,,,0.00,VWS V14.01,2013-02-09 21:49:00,
2013-02-09 16:54:00,71.1,57.3,30.18,NNE,28,0.0,0.0,62,0.00,,,0.00,VWS V14.01,2013-02-09 21:54:00,
2013-02-09 16:59:00,70.8,57.5,30.18,NNE,28,0.0,0.0,63,0.00,,,0.00,VWS V14.01,2013-02-09 21:59:00,
2013-02-09 17:04:00,71.1,57.7,30.18,NNE,28,0.0,0.0,63,0.00,,,0.00,VWS V14.01,2013-02-09 22:04:00,
2013-02-09 17:09:00,70.8,57.4,30.18,NNE,28,0.0,0.0,63,0.00,,,0.00,VWS V14.01,2013-02-09 22:09:00,
2013-02-09 17:14:00,70.6,57.0,30.18,ENE,75,0.0,0.0,62,0.00,,,0.00,VWS V14.01,2013-02-09 22:14:00,
2013-02-09 17:19:00,70.2,57.0,30.18,ESE,122,0.0,0.0,63,0.00,,,0.00,VWS V14.01,2013-02-09 22:19:00,
2013-02-09 17:24:00,70.0,57.0,30.19,NE,53,0.0,0.0,63,0.00,,,0.00,VWS V14.01,2013-02-09 22:24:00,
2013-02-09 17:29:00,69.7,57.1,30.19,NE,53,0.0,0.0,64,0.00,,,0.00,VWS V14.01,2013-02-09 22:29:00,
2013-02-09 17:34:00,69.5,57.3,30.19,NE,53,0.0,0.0,65,0.00,,,0.00,VWS V14.01,2013-02-09 22:34:00,
2013-02-09 17:39:00,69.4,57.4,30.19,NE,55,0.0,4.6,66,0.00,,,0.00,VWS V14.01,2013-02-09 22:39:00,
2013-02-09 17:44:00,69.4,57.7,30.19,ENE,63,0.0,0.0,66,0.00,,,0.00,VWS V14.01,2013-02-09 22:44:00,
2013-02-09 17:49:00,69.1,57.5,30.19,NE,42,0.0,0.0,67,0.00,,,0.00,VWS V14.01,2013-02-09 22:49:00,
2013-02-09 17:54:00,68.9,57.5,30.19,NE,42,0.0,0.0,67,0.00,,,0.00,VWS V14.01,2013-02-09 22:54:00,
2013-02-09 17:59:00,68.4,57.2,30.19,NE,42,0.0,0.0,67,0.00,,,0.00,VWS V14.01,2013-02-09 22:59:00,
2013-02-09 18:04:00,68.2,57.2,30.19,NE,42,0.0,0.0,68,0.00,,,0.00,VWS V14.01,2013-02-09 23:04:00,
2013-02-09 18:09:00,68.3,57.3,30.19,NE,42,0.0,0.0,68,0.00,,,0.00,VWS V14.01,2013-02-09 23:09:00,
2013-02-09 18:14:00,68.2,57.2,30.19,NE,42,0.0,0.0,68,0.00,,,0.00,VWS V14.01,2013-02-09 23:14:00,
2013-02-09 18:19:00,67.7,56.7,30.19,NE,42,0.0,0.0,68,0.00,,,0.00,VWS V14.01,2013-02-09 23:19:00,
2013-02-09 18:24:00,67.3,56.5,30.19,NE,42,0.0,0.0,68,0.00,,,0.00,VWS V14.01,2013-02-09 23:24:00,
2013-02-09 18:29:00,67.3,56.6,30.19,ENE,70,0.0,0.0,68,0.00,,,0.00,VWS V14.01,2013-02-09 23:29:00,
2013-02-09 18:34:00,67.0,56.4,30.19,ENE,70,0.0,0.0,69,0.00,,,0.00,VWS V14.01,2013-02-09 23:34:00,
2013-02-09 18:39:00,67.1,56.4,30.19,ENE,70,0.0,0.0,69,0.00,,,0.00,VWS V14.01,2013-02-09 23:39:00,
2013-02-09 18:44:00,67.1,56.5,30.19,ENE,70,0.0,0.0,69,0.00,,,0.00,VWS V14.01,2013-02-09 23:44:00,
2013-02-09 18:49:00,66.8,56.4,30.19,ENE,70,0.0,0.0,69,0.00,,,0.00,VWS V14.01,2013-02-09 23:49:00,
2013-02-09 18:54:00,66.8,56.4,30.19,ENE,70,0.0,0.0,69,0.00,,,0.00,VWS V14.01,2013-02-09 23:54:00,
2013-02-09 18:59:00,66.2,56.1,30.19,ENE,70,0.0,0.0,70,0.00,,,0.00,VWS V14.01,2013-02-09 23:59:00,
2013-02-09 19:04:00,65.7,55.9,30.19,ENE,70,0.0,0.0,71,0.00,,,0.00,VWS V14.01,2013-02-10 00:04:00,
2013-02-09 19:09:00,65.3,55.7,30.20,ENE,70,0.0,0.0,71,0.00,,,0.00,VWS V14.01,2013-02-10 00:09:00,
2013-02-09 19:14:00,65.6,56.2,30.20,ENE,70,0.0,0.0,72,0.00,,,0.00,VWS V14.01,2013-02-10 00:14:00,
2013-02-09 19:19:00,65.4,56.1,30.20,ENE,70,0.0,0.0,72,0.00,,,0.00,VWS V14.01,2013-02-10 00:19:00,
2013-02-09 19:24:00,65.2,56.0,30.20,ENE,70,0.0,0.0,72,0.00,,,0.00,VWS V14.01,2013-02-10 00:24:00,
2013-02-09 19:29:00,65.0,56.0,30.20,ENE,70,0.0,0.0,73,0.00,,,0.00,VWS V14.01,2013-02-10 00:29:00,
2013-02-09 19:34:00,65.1,56.2,30.20,ENE,70,0.0,0.0,73,0.00,,,0.00,VWS V14.01,2013-02-10 00:34:00,
2013-02-09 19:39:00,64.9,56.1,30.20,ENE,70,0.0,0.0,73,0.00,,,0.00,VWS V14.01,2013-02-10 00:39:00,
2013-02-09 19:44:00,64.5,55.9,30.20,ENE,70,0.0,0.0,74,0.00,,,0.00,VWS V14.01,2013-02-10 00:44:00,
2013-02-09 19:49:00,64.5,56.0,30.20,ENE,70,0.0,0.0,74,0.00,,,0.00,VWS V14.01,2013-02-10 00:49:00,
2013-02-09 19:54:00,64.5,56.2,30.20,ENE,70,0.0,0.0,74,0.00,,,0.00,VWS V14.01,2013-02-10 00:54:00,
2013-02-09 19:59:00,64.4,56.1,30.20,ENE,70,0.0,0.0,74,0.00,,,0.00,VWS V14.01,2013-02-10 00:59:00,
2013-02-09 20:04:00,64.4,56.2,30.20,ENE,70,0.0,0.0,75,0.00,,,0.00,VWS V14.01,2013-02-10 01:04:00,
2013-02-09 20:09:00,64.3,56.1,30.21,ENE,70,0.0,0.0,75,0.00,,,0.00,VWS V14.01,2013-02-10 01:09:00,
2013-02-09 20:14:00,64.3,56.1,30.21,ENE,70,0.0,0.0,75,0.00,,,0.00,VWS V14.01,2013-02-10 01:14:00,
2013-02-09 20:19:00,64.0,56.0,30.21,ENE,70,0.0,0.0,75,0.00,,,0.00,VWS V14.01,2013-02-10 01:19:00,
2013-02-09 20:24:00,63.9,55.9,30.21,ENE,70,0.0,0.0,75,0.00,,,0.00,VWS V14.01,2013-02-10 01:24:00,
2013-02-09 20:29:00,63.8,55.8,30.21,ENE,70,0.0,0.0,75,0.00,,,0.00,VWS V14.01,2013-02-10 01:29:00,
2013-02-09 20:34:00,63.7,55.9,30.21,ENE,70,0.0,0.0,76,0.00,,,0.00,VWS V14.01,2013-02-10 01:34:00,
2013-02-09 20:39:00,63.8,56.0,30.21,ENE,70,0.0,0.0,76,0.00,,,0.00,VWS V14.01,2013-02-10 01:39:00,
2013-02-09 20:44:00,63.5,55.8,30.22,ENE,70,0.0,0.0,76,0.00,,,0.00,VWS V14.01,2013-02-10 01:44:00,
2013-02-09 20:49:00,63.3,55.7,30.22,ENE,70,0.0,0.0,76,0.00,,,0.00,VWS V14.01,2013-02-10 01:49:00,
2013-02-09 20:54:00,63.2,55.7,30.22,ENE,70,0.0,0.0,77,0.00,,,0.00,VWS V14.01,2013-02-10 01:54:00,
2013-02-09 20:59:00,62.9,55.5,30.22,ENE,70,0.0,0.0,77,0.00,,,0.00,VWS V14.01,2013-02-10 01:59:00,
2013-02-09 21:04:00,63.1,55.7,30.23,ENE,70,0.0,0.0,77,0.00,,,0.00,VWS V14.01,2013-02-10 02:04:00,
2013-02-09 21:09:00,62.7,55.4,30.23,ENE,70,0.0,0.0,77,0.00,,,0.00,VWS V14.01,2013-02-10 02:09:00,
2013-02-09 21:14:00,62.7,55.5,30.23,ENE,70,0.0,0.0,77,0.00,,,0.00,VWS V14.01,2013-02-10 02:14:00,
2013-02-09 21:19:00,62.5,55.4,30.23,ENE,70,0.0,0.0,78,0.00,,,0.00,VWS V14.01,2013-02-10 02:19:00,
2013-02-09 21:24:00,62.3,55.4,30.23,ENE,70,0.0,0.0,78,0.00,,,0.00,VWS V14.01,2013-02-10 02:24:00,
2013-02-09 21:29:00,61.8,55.0,30.23,ENE,70,0.0,0.0,78,0.00,,,0.00,VWS V14.01,2013-02-10 02:29:00,
2013-02-09 21:34:00,62.0,55.3,30.23,ENE,70,0.0,0.0,79,0.00,,,0.00,VWS V14.01,2013-02-10 02:34:00,
2013-02-09 21:39:00,61.6,55.0,30.23,ENE,70,0.0,0.0,79,0.00,,,0.00,VWS V14.01,2013-02-10 02:39:00,
2013-02-09 21:44:00,61.8,55.2,30.23,ENE,70,0.0,0.0,79,0.00,,,0.00,VWS V14.01,2013-02-10 02:44:00,
2013-02-09 21:49:00,61.3,54.9,30.23,ENE,70,0.0,0.0,80,0.00,,,0.00,VWS V14.01,2013-02-10 02:49:00,
2013-02-09 21:54:00,61.2,54.9,30.23,ENE,70,0.0,0.0,80,0.00,,,0.00,VWS V14.01,2013-02-10 02:54:00,
2013-02-09 21:59:00,61.0,54.9,30.23,ENE,70,0.0,0.0,80,0.00,,,0.00,VWS V14.01,2013-02-10 02:59:00,
2013-02-09 22:04:00,61.0,54.8,30.23,ENE,70,0.0,0.0,80,0.00,,,0.00,VWS V14.01,2013-02-10 03:04:00,
2013-02-09 22:09:00,61.0,55.1,30.23,ENE,70,0.0,0.0,81,0.00,,,0.00,VWS V14.01,2013-02-10 03:09:00,
2013-02-09 22:14:00,60.7,54.8,30.23,ENE,70,0.0,0.0,81,0.00,,,0.00,VWS V14.01,2013-02-10 03:14:00,
2013-02-09 22:19:00,60.6,54.8,30.23,ENE,70,0.0,0.0,81,0.00,,,0.00,VWS V14.01,2013-02-10 03:19:00,
2013-02-09 22:24:00,60.4,54.8,30.23,ENE,70,0.0,0.0,82,0.00,,,0.00,VWS V14.01,2013-02-10 03:24:00,
2013-02-09 22:29:00,60.4,54.8,30.23,ENE,70,0.0,0.0,82,0.00,,,0.00,VWS V14.01,2013-02-10 03:29:00,
2013-02-09 22:34:00,60.3,54.7,30.24,ENE,70,0.0,0.0,82,0.00,,,0.00,VWS V14.01,2013-02-10 03:34:00,
2013-02-09 22:39:00,60.0,54.5,30.23,ENE,70,0.0,0.0,82,0.00,,,0.00,VWS V14.01,2013-02-10 03:39:00,
2013-02-09 22:44:00,60.2,54.8,30.23,ENE,70,0.0,0.0,82,0.00,,,0.00,VWS V14.01,2013-02-10 03:44:00,
2013-02-09 22:49:00,60.0,54.6,30.23,ENE,70,0.0,0.0,82,0.00,,,0.00,VWS V14.01,2013-02-10 03:49:00,
2013-02-09 22:54:00,59.7,54.4,30.23,ENE,70,0.0,0.0,83,0.00,,,0.00,VWS V14.01,2013-02-10 03:54:00,
2013-02-09 22:59:00,59.7,54.7,30.24,ENE,70,0.0,0.0,83,0.00,,,0.00,VWS V14.01,2013-02-10 03:59:00,
2013-02-09 23:04:00,59.8,54.8,30.23,ENE,70,0.0,0.0,83,0.00,,,0.00,VWS V14.01,2013-02-10 04:04:00,
2013-02-09 23:09:00,59.5,54.5,30.23,ENE,70,0.0,0.0,83,0.00,,,0.00,VWS V14.01,2013-02-10 04:09:00,
2013-02-09 23:14:00,59.5,54.5,30.23,ENE,70,0.0,0.0,84,0.00,,,0.00,VWS V14.01,2013-02-10 04:14:00,
2013-02-09 23:19:00,59.4,54.4,30.23,ENE,70,0.0,0.0,84,0.00,,,0.00,VWS V14.01,2013-02-10 04:19:00,
2013-02-09 23:24:00,59.4,54.4,30.23,ENE,70,0.0,0.0,84,0.00,,,0.00,VWS V14.01,2013-02-10 04:24:00,
2013-02-09 23:29:00,59.4,54.5,30.23,ENE,70,0.0,0.0,84,0.00,,,0.00,VWS V14.01,2013-02-10 04:29:00,
2013-02-09 23:34:00,59.4,54.4,30.23,ENE,70,0.0,0.0,84,0.00,,,0.00,VWS V14.01,2013-02-10 04:34:00,
2013-02-09 23:39:00,59.4,54.4,30.23,ENE,70,0.0,0.0,84,0.00,,,0.00,VWS V14.01,2013-02-10 04:39:00,
2013-02-09 23:44:00,59.4,54.5,30.23,ENE,70,0.0,0.0,84,0.00,,,0.00,VWS V14.01,2013-02-10 04:44:00,
2013-02-09 23:49:00,59.5,54.6,30.24,ENE,70,0.0,0.0,84,0.00,,,0.00,VWS V14.01,2013-02-10 04:49:00,
2013-02-09 23:54:00,59.3,54.4,30.23,ENE,70,0.0,0.0,84,0.00,,,0.00,VWS V14.01,2013-02-10 04:54:00,
2013-02-09 23:59:00,59.3,54.5,30.23,ENE,70,0.0,0.0,84,0.00,,,0.00,VWS V14.01,2013-02-10 04:59:00,